Погода Бельцы

Погода Бельцы : погода сейчас, прогноз погоды и архив. Всё, что Вы хотите узнать о погоде Бельцы!

Поиск расширенной информации на нашем сайте:

Другие новости

Новости СМИ2

Главная страница сайта

Новости сайта

03.07.2017

Напоминаем, что на нашем специализированном сайте Метеоцентр.Азия вы можете получить высокодетализированные автоматические прогнозы погоды по пунктам России, СНГ и мира в авиационном формате (включающие направление и скорость ветра, видимость, явления погоды, количество и форму облачности, нижнюю и верхнюю границу облачности).


Погода Бельцы - сегодня

Время (UTC), дата Ветер
(°,м/с) 
Видим.   Явления Облачность Т
(°С)
Тd
(°С)
f(%) Тe
(°С)
Pmin
(гПа)
dP
(гПа)
Po
(мм)
O2
(г/м3)
Тmin Tmax R s Состояние
почвы
18 22.09.18 290 (З) 6{12}  10 км    9/5 600 м кучево-дожд., средняя 
[Cb cap|Ac trans]
+16.7 +5.6 48 +16  1018.3  2.8  750  284    +28.3       
21 22.09.18 320 (СЗ) 10 км  слаб. ливневой дождь  9/9 300 м кучево-дожд. 
[Cb cap]
+12.5 +10 85 +13  1020.4  1.8  751  288           
00 23.09.18 290 (З) 10 км  {ливн. осадки}  9/8 600 м кучево-дожд., средняя 
[Cb cap|Ac trans]
+11.5 +9.9 90 +13  1021.4  0.9  752  289           
03 23.09.18 300 (СЗ) 10 км    9/5 600 м кучево-дожд., средняя 
[Cb cap|Ac trans]
+10.7 +9.5 92 +12  1021.7  0.2  752  290           
06 23.09.18 310 (СЗ) 10 км    8/0 средняя 
[Ac trans]
+11.6 +9 84 +13  1021.8  0.2  752  289  +10.3    0.0     
09 23.09.18 210 (ЮЗ) 10 км    8/0 средняя, верхняя 
[Ac trans|Ci fib]
+17.1 +7.2 52 +19  1021.5  0.1  752  284           
12 23.09.18 260 (З) 10 км    6/0 средняя, верхняя 
[Ac trans|Ci fib]
+19.6 +3.3 34 +21  1020.2  -1.2  751  282           
15 23.09.18 тихо ()   10 км    3/0 верхняя 
[Ci fib]
+19.7 +1.7 30 +20  1018.9  -1.3  750  282           
18 23.09.18 тихо ()   10 км    6/0 верхняя 
[Ci fib]
+12.1 +3.6 56 +12  1019.1  -0.2  750  289    +20.6       
21 23.09.18 тихо ()   10 км    4/0 верхняя 
[Ci fib]
+12.2 +7.1 71 +12  1017.3  -1.8  749  288           
00 24.09.18 тихо ()   10 км    8/3 600 м средняя, верхняя 
[Sc|Ac trans|Ci fib]
+12.1 +8.2 77 +12  1013.4  -3.8  746  286           
03 24.09.18 150 (ЮВ) 10 км    8/4 600 м кучево-дожд., верхняя 
[Cb cap|Ci fib]
+14.2 +11.4 83 +17  1009.6  -3.6  743  282  +11.7         
06 24.09.18 160 (Ю) 10 км    9/9 600 м кучево-дожд. 
[Cb cap]
+17 +13.9 82 +24  1007.4  -2  742  278  +11.7         
09 24.09.18 210 (ЮЗ) 10 км  в посл. час ливневой дождь  10/8 600 м кучево-дожд., средняя 
[Cb cap|Ac trans]
+17 +15 88 +27  1009.1  1.7  743  279           
12 24.09.18 280 (З) 10 км  слаб. ливневой дождь  10/10 300 м кучево-дожд. 
[Cb cap]
+11.6 +9.9 89 +12  1014.2  4.6  746  287           
15 24.09.18 280 (З) 10 км  в посл. час ливневой дождь  10/8 600 м кучево-дожд., средняя 
[Cb cap|Ac trans]
+10.2 +8.1 87 +10  1016  1.7  748  289           
18 24.09.18 250 (З) 10 км  {ливн. осадки}  9/9 600 м кучево-дожд. 
[Cb cap]
+9.7 +7.5 86 +9  1017.8  1.7  749  290    +1.8     
21 24.09.18 240 (ЮЗ) 10 км    8/3 600 м кучево-дожд., средняя 
[Cb cap|Ac trans]
+8.6 +6.1 84 +9  1020  2.1  751  292           
00 25.09.18 260 (З) 10 км    4/0 верхняя 
[Ci fib]
+7.4 +3.8 78 +6  1020.5  0.4  751  294           
03 25.09.18 250 (З) 10 км    3/3 600 м кучево-дожд. 
[Cb cap]
+7.2 +4.2 81 +6  1021.6  1.1  752  294           
06 25.09.18 260 (З) 10 км    9/6 600 м кучево-дожд., средняя 
[Cb cap|Ac trans]
+8.5 +5.8 83 +7  1023.5  1.9  753  293  +7.1         
09 25.09.18 280 (З) 10 км    8/5 600 м кучево-дожд., верхняя 
[Cb cap|Ci fib]
+11.5 +4 60 +10  1025.3  755  291           
12 25.09.18 280 (З) 8{14}  10 км    8/8 600 м кучево-дожд. 
[Cb cap]
+12.4 +1.7 48 +11  1026.1  0.8  755  291    +2.5       
15 25.09.18 270 (З) 6{12}  10 км    6/0 средняя 
[Ac trans]
+10.6 +1.4 53 +9  1027.6  1.4  756  293           
18 25.09.18 260 (З) 2{12}  10 км  в посл. час ливневой дождь  8/8 600 м кучево-дожд. 
[Cb cap]
+7.2 +4.2 81 +7  1030.9  758  297    +13.2  0.0     
Время (UTC), дата Ветер
(°,м/с) 
Видим.   Явления Облачность Т
(°С)
Тd
(°С)
f(%) Тe
(°С)
Pmin
(гПа)
dP
(гПа)
Po
(мм)
O2
(г/м3)
Тmin Tmax R s Состояние
почвы

Для получения пояснительной информации подведите курсор к названию столбца.

ПОГОДА Бельцы - архив

Всё, что Вы хотите узнать о погоде Бельцы - удобно и подробно!

Выберите нужную дату (начиная с 1 января 2015* года) и нажмите кнопку "Найти".
Будут отображены архивные сводки погоды по пункту Бельцы, начиная с указанной даты.


Отображать данные в формате CSV (для использования в таблицах Excel)


Внимание! Наш архив погоды предназначен исключительно для личного некоммерческого использования в познавательных целях. Если Вам необходимы официальные справки о состоянии погоды (для производственных, юридических, коммерческих и т.п. целей), обращайтесь в органы Росгидромета.

*Примечание: данная дата относится к архиву по метеостанциям СССР (Россия, СНГ, Балтия).
Архив по метеостанциям Зарубежной Европы и Азии (кроме Китая) хранится 10 дней, по другим регионам земного шара (Китай, Африка, Америка, Австралия, Океания) - 1 день.

Бельцы - район местоположения метеостанции


Название, широта, долгота, высота метеостанции:
Бельцы 47.8°ш. 27.9°д. 102 м над ур. моря [Молдавия]

Дополнительная информация

В oтличие oт бoльшинства пoгoдных сайтoв мы публикуем пoдрoбную метеoинфoрмацию в детальнoм прoфессиoнальнoм фoрмате.

Характеристики температуры и влажнoсти вoздуха измеряются на высoте 2 м в тени вдали oт зданий и деревьев.
Скoрoсть ветра измеряется на высoте 10 м (на урoвне рoста челoвека скoрoсть ветра ниже в 1.5-2 раза). Если метеoстанция нахoдится в гoрoде или в лесу, тo скoрoсть ветра занижена на 2-4 м/с пo сравнению с oткрытым местoм. Скoрoсть ветра над акватoриями крупных рек и oзёр, а также на вершинах хoлмoв на 2-5 м/с выше, чем в oбычных услoвиях.
Атмoсфернoе давление в разных тoчках местнoсти мoжет значительнo oтличаться oт давления на метеoстанции, в зависимoсти oт услoвий рельефа (при пoдъёме на 10 м давление пoнижается примернo на 1 мм рт.ст.).